This demonstration page uses our WeatherBlox Daily Observations layout. Learn more.

Left ArrowRight Arrow

39.51506, -84.39828

Hourly Observations for June 17, 2015

Temp ( °F °C ) Dew Point ( °F °C ) Humidity (%) Winds ( mph kmh ) Pressure ( in mb ) Visibility ( mi km ) Precip ( " mm )
5:15 am 05:15 Cloudy 74 23.6 71 21.6 89 89 N N/A 30.03 1017 10 16.0934 N/A
5:55 am 05:55 Cloudy with Drizzle 74 23.6 71 21.7 89 89 N N/A 30.03 1017 10 16.0934 N/A
6:15 am 06:15 Cloudy with Drizzle 74 23.6 71 21.7 89 89 N N/A 30.06 1018 7 11.26538 N/A
6:35 am 06:35 Mostly Cloudy with Drizzle 74 23.6 71 21.7 89 89 SW 3 6 30.06 1018 5 8.0467 N/A
6:55 am 06:55 Mostly Cloudy with Drizzle 74 23.6 71 21.7 89 89 SSW 5 7 30.03 1017 4 6.43736 N/A
7:15 am 07:15 Mostly Cloudy with Drizzle 74 23.6 71 21.7 89 89 WSW 3 6 30.03 1017 4 6.43736 N/A
7:35 am 07:35 Partly Cloudy with Drizzle 74 23.6 71 21.7 89 89 SW 5 7 30.06 1018 4 6.43736 N/A
7:55 am 07:55 Mostly Cloudy with Drizzle 74 23.6 71 21.7 89 89 SW 5 7 30.06 1018 4 6.43736 N/A
8:15 am 08:15 Cloudy with Rain 74 23.6 71 21.7 89 89 SSW 9 15 30.06 1018 5 8.0467 N/A
8:35 am 08:35 Cloudy with Light Rain 74 23.6 71 21.6 89 89 SSW 7 11 30.06 1018 4 6.43736 N/A
8:55 am 08:55 Cloudy with Light Rain 74 23.6 71 21.6 89 89 N N/A 30.03 1017 5 8.0467 N/A
9:15 am 09:15 Cloudy with Drizzle 74 23.6 71 21.6 89 89 S 5 7 30.03 1017 5 8.0467 N/A
9:35 am 09:35 Cloudy with Drizzle 76 24.6 72 22.3 87 87 S 8 13 30.03 1017 10 16.0934 N/A
9:55 am 09:55 Cloudy 76 24.3 71 21.8 86 86 SSW 7 11 30.03 1017 10 16.0934 N/A
10:15 am 10:15 Cloudy 76 24.6 71 21.8 84 84 SSW 6 9 30.03 1017 10 16.0934 N/A
10:35 am 10:35 Cloudy 75 23.9 70 21 84 84 SW 10 17 30.03 1017 10 16.0934 N/A
10:55 am 10:55 Cloudy 77 24.8 71 21.7 83 83 SW 8 13 30.03 1017 10 16.0934 N/A
11:15 am 11:15 Cloudy 75 23.8 69 20.5 82 82 SW 10 17 30.03 1017 10 16.0934 N/A
11:35 am 11:35 Cloudy 77 25.1 71 21.6 81 81 WSW 10 17 30.03 1017 10 16.0934 N/A
11:55 am 11:55 Cloudy 77 25.1 71 21.5 81 81 SW 10 17 30.03 1017 10 16.0934 N/A
12:15 pm 12:15 Cloudy 77 25.1 70 21.3 80 80 WSW 9 15 30.03 1017 10 16.0934 N/A
12:35 pm 12:35 Cloudy 77 25.2 70 21 78 78 WSW 10 17 30.03 1017 10 16.0934 N/A
12:55 pm 12:55 Cloudy 80 26.5 72 22 76 76 WSW 8 13 30.03 1017 10 16.0934 N/A
1:15 pm 13:15 Mostly Cloudy 80 26.5 70 21.3 73 73 W 10 17 30.03 1017 10 16.0934 N/A
1:35 pm 13:35 Mostly Cloudy 80 26.9 71 21.8 74 74 W 8 13 30.03 1017 10 16.0934 N/A
1:55 pm 13:55 Mostly Cloudy 80 26.5 70 21 72 72 W 9 15 30.03 1017 10 16.0934 N/A
2:15 pm 14:15 Mostly Cloudy 81 27.2 71 21.7 72 72 W 9 15 30.03 1017 10 16.0934 N/A
2:35 pm 14:35 Partly Cloudy 82 28 72 22 70 70 WSW 14 22 30 1016 10 16.0934 N/A
2:55 pm 14:55 Partly Cloudy 81 27.2 70 21.2 70 70 WSW 10 17 30 1016 10 16.0934 N/A
3:15 pm 15:15 Partly Cloudy 82 28 71 21.4 67 67 WSW 13 20 30 1016 10 16.0934 N/A
3:35 pm 15:35 Mostly Cloudy 80 26.6 71 21.5 74 74 SW 10 17 30 1016 10 16.0934 N/A
3:55 pm 15:55 Mostly Cloudy 83 28.1 71 21.8 69 69 SW 12 19 30 1016 10 16.0934 N/A
4:15 pm 16:15 Mostly Cloudy 80 26.5 70 21.3 73 73 SW 10 17 30 1016 10 16.0934 N/A
4:35 pm 16:35 Cloudy with Light Rain 80 26.5 72 22.2 77 77 WSW 9 15 30 1016 10 16.0934 N/A
4:55 pm 16:55 Cloudy with Heavy Rain 77 25.1 72 22.3 85 85 W 8 13 30 1016 3 4.82802 N/A
5:15 pm 17:15 Cloudy with Rain 74 23.6 70 21 85 85 W 8 13 30 1016 5 8.0467 N/A
5:35 pm 17:35 Cloudy with Rain 74 23.6 70 21.2 86 86 W 12 19 30 1016 3 4.82802 N/A
5:55 pm 17:55 Cloudy with Light Rain 74 23.6 70 21 85 85 WSW 5 7 30 1016 10 16.0934 N/A
6:15 pm 18:15 Mostly Cloudy 77 25.1 73 22.5 86 86 SW 6 9 30 1016 10 16.0934 N/A
6:35 pm 18:35 Mostly Cloudy 77 25.1 72 22.3 85 85 W 5 7 30 1016 10 16.0934 N/A
6:55 pm 18:55 Cloudy 77 25.1 72 22.3 85 85 N N/A 30 1016 10 16.0934 N/A
7:15 pm 19:15 Cloudy with Drizzle 77 25.1 72 22.4 85 85 N N/A 30 1016 10 16.0934 N/A
7:35 pm 19:35 Cloudy with Light Rain 77 25.1 73 22.6 86 86 N N/A 30 1016 10 16.0934 N/A
7:55 pm 19:55 Mostly Cloudy 77 25.1 73 22.6 86 86 SSW 6 9 30 1016 10 16.0934 N/A
8:15 pm 20:15 Partly Cloudy 75 24 70 21.2 84 84 SW 6 9 30 1016 10 16.0934 N/A
8:35 pm 20:35 Sunny 74 23.6 70 21.1 86 86 SW 6 9 30 1016 10 16.0934 N/A
8:55 pm 20:55 Sunny 74 23.6 70 21.2 86 86 SW 5 7 30 1016 10 16.0934 N/A
9:15 pm 21:15 Partly Cloudy 74 23.6 71 21.5 88 88 SW 3 6 30 1016 10 16.0934 N/A
9:35 pm 21:35 Clear 74 23.6 71 21.5 88 88 N N/A 30 1016 10 16.0934 N/A
9:55 pm 21:55 Partly Cloudy 74 23.6 71 21.5 88 88 N N/A 30 1016 10 16.0934 N/A
10:15 pm 22:15 Mostly Cloudy 74 23.6 71 21.6 89 89 N N/A 30 1016 10 16.0934 N/A
10:35 pm 22:35 Mostly Cloudy 74 23.6 71 21.6 89 89 N N/A 30.03 1017 10 16.0934 N/A
10:55 pm 22:55 Partly Cloudy 74 23.6 71 21.6 89 89 N N/A 30.03 1017 10 16.0934 N/A
11:15 pm 23:15 Clear 74 23.6 71 21.6 89 89 N N/A 30.03 1017 10 16.0934 N/A
11:35 pm 23:35 Partly Cloudy 74 23.6 71 21.5 88 88 N N/A 30.03 1017 10 16.0934 N/A
11:55 pm 23:55 Partly Cloudy 74 23.6 71 21.6 89 89 N N/A 30 1016 10 16.0934 N/A

Powered by AerisWeather